This demonstration page uses our WeatherBlox Daily Observations layout. Learn more.

Left ArrowRight Arrow

Hourly Observations for April 6, 2017

Temp ( °F °C ) Dew Point ( °F °C ) Humidity (%) Winds ( mph kmh ) Pressure ( in mb ) Visibility ( mi km ) Precip ( " mm )
12:53 am 00:53 Clear 42 5.6 31 -0.6 65 65 Calm 30.00 1016 10 16 0.00 0.00
1:53 am 01:53 Clear 41 5 32 0 70 70 Calm 29.95 1014 10 16 0.00 0.00
2:53 am 02:53 Clear 40 4.4 33 0.6 77 77 Calm 29.94 1014 10 16 0.00 0.00
3:53 am 03:53 Clear 36 2.2 31 -0.6 82 82 E 6 9 29.93 1014 10 16 0.00 0.00
4:53 am 04:53 Clear 36 2.2 30 -1.1 79 79 ENE 6 9 29.93 1013 10 16 0.00 0.00
5:53 am 05:53 Clear 35 1.7 30 -1.1 82 82 ENE 9 15 29.92 1013 10 16 0.00 0.00
6:53 am 06:53 Sunny 36 2.2 30 -1.1 79 79 E 10 17 29.91 1013 10 16 0.00 0.00
7:53 am 07:53 Sunny 38 3.3 31 -0.6 76 76 Calm 29.91 1013 10 16 0.00 0.00
8:53 am 08:53 Cloudy 40 4.4 33 0.6 77 77 ENE 3 6 29.89 1012 10 16 0.00 0.00
9:53 am 09:53 Sunny 49 9.4 35 1.7 59 59 ENE 5 7 29.87 1011 10 16 0.00 0.00
10:53 am 10:53 Mostly Sunny 56 13.3 37 2.8 49 49 Calm 29.84 1011 10 16 0.00 0.00
11:53 am 11:53 Sunny 64 17.8 37 2.8 37 37 VRB 3 6 29.81 1010 10 16 0.00 0.00
12:53 pm 12:53 Sunny 68 20 31 -0.6 25 25 SW 14 22 29.78 1009 10 16 0.00 0.00
1:53 pm 13:53 Sunny 69 20.6 32 0 25 25 SW 22 35 29.75 1007 10 16 0.00 0.00
2:53 pm 14:53 Sunny 72 22.2 33 0.6 24 24 SW 15 24 29.72 1006 10 16 0.00 0.00
3:53 pm 15:53 Sunny 70 21.1 32 0 25 25 SW 13 20 29.70 1006 10 16 0.00 0.00
4:53 pm 16:53 Sunny 71 21.7 33 0.6 25 25 SW 15 24 29.67 1005 10 16 0.00 0.00
5:53 pm 17:53 Sunny 72 22.2 31 -0.6 22 22 SW 21 33 29.65 1004 10 16 0.00 0.00
6:53 pm 18:53 Sunny 69 20.6 35 1.7 29 29 SSW 10 17 29.64 1004 10 16 0.00 0.00
7:53 pm 19:53 Sunny 60 15.6 36 2.2 41 41 SSW 8 13 29.64 1004 10 16 0.00 0.00
8:53 pm 20:53 Mostly Clear 55 12.8 36 2.2 49 49 SSE 6 9 29.63 1004 10 16 0.00 0.00
9:53 pm 21:53 Mostly Cloudy 57 13.9 38 3.3 49 49 VRB 3 6 29.62 1003 10 16 0.00 0.00
10:53 pm 22:53 Cloudy 58 14.4 42 5.6 56 56 WNW 12 19 29.65 1004 10 16 0.00 0.03
11:53 pm 23:53 Mostly Cloudy 54 12.2 44 6.7 69 69 SW 9 15 29.65 1004 10 16 0.00 0.00

Powered by AerisWeather